TimeEST,TemperatureF,Dew PointF,Humidity,Sea Level PressureIn,VisibilityMPH,Wind Direction,Wind SpeedMPH,Gust SpeedMPH,PrecipitationIn,Events,Conditions,WindDirDegrees,DateUTC
12:53 AM,37.0,21.0,52,29.90,10.0,SSW,6.9,-,N/A,,Overcast,210,2012-11-26 05:53:00
1:53 AM,37.0,21.0,52,29.92,10.0,SW,5.8,-,N/A,,Overcast,220,2012-11-26 06:53:00
2:53 AM,37.0,21.9,54,29.94,10.0,SW,4.6,-,N/A,,Overcast,230,2012-11-26 07:53:00
3:53 AM,37.0,21.9,54,29.93,10.0,SW,3.5,-,N/A,,Overcast,220,2012-11-26 08:53:00
4:53 AM,37.9,21.9,53,29.96,10.0,South,3.5,-,N/A,,Overcast,180,2012-11-26 09:53:00
5:53 AM,37.9,21.9,53,29.97,10.0,Variable,3.5,-,N/A,,Overcast,0,2012-11-26 10:53:00
6:53 AM,37.0,21.9,54,29.99,10.0,SW,5.8,-,N/A,,Clear,220,2012-11-26 11:53:00
7:53 AM,37.9,23.0,55,30.02,10.0,SW,8.1,-,N/A,,Clear,230,2012-11-26 12:53:00
8:53 AM,41.0,21.9,47,30.04,10.0,West,11.5,-,N/A,,Clear,260,2012-11-26 13:53:00
9:53 AM,43.0,21.9,43,30.07,10.0,West,13.8,20.7,N/A,,Clear,260,2012-11-26 14:53:00
10:53 AM,45.0,21.9,40,30.08,10.0,WNW,13.8,-,N/A,,Clear,290,2012-11-26 15:53:00
11:53 AM,46.0,21.0,37,30.08,10.0,WNW,10.4,18.4,N/A,,Scattered Clouds,290,2012-11-26 16:53:00
12:53 PM,46.0,19.0,34,30.08,10.0,NW,13.8,-,N/A,,Clear,320,2012-11-26 17:53:00
1:53 PM,46.0,19.0,34,30.09,10.0,WNW,12.7,16.1,N/A,,Partly Cloudy,300,2012-11-26 18:53:00
2:53 PM,46.0,18.0,33,30.10,10.0,NW,10.4,-,N/A,,Clear,310,2012-11-26 19:53:00
3:53 PM,45.0,18.0,34,30.12,10.0,NW,9.2,-,N/A,,Clear,310,2012-11-26 20:53:00
4:53 PM,41.0,18.0,40,30.14,10.0,WNW,3.5,-,N/A,,Clear,300,2012-11-26 21:53:00
5:53 PM,39.9,17.1,40,30.17,10.0,WNW,3.5,-,N/A,,Clear,300,2012-11-26 22:53:00
6:53 PM,34.0,19.0,54,30.19,10.0,West,4.6,-,N/A,,Clear,260,2012-11-26 23:53:00
7:53 PM,28.0,19.0,69,30.21,10.0,Calm,Calm,-,N/A,,Clear,0,2012-11-27 00:53:00
8:53 PM,28.9,19.9,69,30.22,10.0,Calm,Calm,-,N/A,,Clear,0,2012-11-27 01:53:00
9:53 PM,27.0,19.9,75,30.23,10.0,Calm,Calm,-,N/A,,Clear,0,2012-11-27 02:53:00
10:53 PM,28.0,19.9,72,30.24,10.0,Calm,Calm,-,N/A,,Overcast,0,2012-11-27 03:53:00
11:53 PM,28.9,21.9,75,30.24,10.0,Calm,Calm,-,N/A,,Overcast,0,2012-11-27 04:53:00